[[{"header":{"parameterUnit":"m.s-1","parameterCategory":1,"la1":30.2991,"la2":30.254,"lo1":-89.0895,"lo2":-89.0444,"dy":0.0017,"dx":0.0017,"nx":28,"ny":28,"refTime":"2024-05-05T21:00:00:Z","depth":0,"parameterNumber":2,"parameterNumberName":"U-component_of_WINDS"},"data":[0,0,0,0,0,0,0,0,0,0,0,0,0,0,0,0,0,0,0,0,0,0,0,0,0,0,0,0,0,0,0,0,0,0,0,0,0,0,0,0,0,0,0,0,0,0,0,0,0,0,0,0,0,0,0,0,0,0,-2.5029,-2.503,0,-2.5099,-2.5099,-2.51,-2.5088,-2.5087,-2.5085,-2.5084,-2.5157,-2.516,-2.5163,0,0,0,0,0,0,0,0,0,0,0,0,0,-2.4888,-2.4891,-2.5029,-2.503,-2.5031,-2.5099,-2.51,-2.51,-2.5088,-2.5087,-2.5085,-2.5084,-2.5156,-2.516,-2.5164,0,0,0,0,0,0,0,0,0,0,0,0,0,-2.4953,-2.4892,-2.5029,-2.5033,-2.5034,-2.5098,-2.51,-2.5101,-2.5088,-2.5087,-2.5085,-2.5083,-2.5155,-2.516,-2.5164,-2.523,0,0,-2.5178,-2.518,0,0,0,0,0,0,0,0,-2.4949,-2.4958,-2.5031,-2.5033,-2.5034,-2.5083,-2.5077,-2.5144,-2.5089,-2.5068,-2.5084,-2.5082,-2.5134,-2.514,-2.5157,-2.5233,-2.5236,-2.5179,-2.5182,-2.5184,-2.5185,0,0,0,0,0,0,0,-2.4945,-2.4955,-2.5057,-2.5032,-2.5034,-2.5032,-2.5039,-2.5089,-2.511,-2.5069,-2.5069,-2.5077,-2.5134,-2.5153,-2.5159,-2.5237,-2.5179,-2.5183,-2.5186,-2.5187,-2.5372,-2.5374,0,0,0,0,0,0,-2.4939,-2.4951,-2.5054,-2.5059,-2.4986,-2.5036,-2.5044,-2.5069,-2.511,-2.5114,-2.5079,-2.5076,-2.5146,-2.5154,-2.5162,-2.5242,-2.5183,-2.5188,-2.5191,-2.537,-2.5373,-2.5375,0,0,0,0,0,0,-2.4936,-2.4948,-2.5052,-2.5005,-2.5018,-2.504,-2.5069,-2.5071,-2.509,-2.5117,-2.5121,-2.5093,-2.5145,-2.5155,-2.5213,-2.5244,-2.519,-2.5194,-2.5367,-2.5371,-2.5374,-2.5402,0,0,0,0,0,0,-2.4932,-2.4947,-2.4971,-2.5005,-2.502,-2.5101,-2.507,-2.5074,-2.5098,-2.5095,-2.5132,-2.5136,-2.5144,-2.5206,-2.5218,-2.5249,-2.5198,-2.5365,-2.5369,-2.5373,-2.5398,-2.5406,-2.5412,0,0,0,0,0,-2.4927,-2.4976,-2.4972,-2.4985,-2.5051,-2.5103,-2.5111,-2.5119,-2.51,-2.5125,-2.5143,-2.5135,-2.5239,-2.5212,-2.5225,-2.5259,-2.5363,-2.5368,-2.5372,-2.5395,-2.5404,-2.5412,0,0,0,0,0,0,-2.4945,-2.4981,-2.4977,-2.5039,-2.5068,-2.5101,-2.5132,-2.5128,-2.5164,-2.516,-2.5169,-2.5177,-2.5236,-2.5254,-2.5223,-2.5325,-2.5298,-2.5306,-2.5311,-2.532,-2.5327,-2.5321,-2.5202,0,0,0,0,0,-2.4957,-2.4995,-2.5024,-2.5077,-2.5091,-2.511,-2.5132,-2.5136,-2.5166,-2.5179,-2.52,-2.5231,-2.5271,-2.5297,-2.5335,-2.5401,-2.541,-2.5431,-2.5438,-2.5443,-2.5449,-2.5487,-2.5497,-2.5391,-2.5391,-2.539,0,0,-2.4981,-2.5005,-2.5028,-2.5081,-2.5104,-2.5144,-2.512,-2.5163,-2.5193,-2.5185,-2.5241,-2.5259,-2.5294,-2.5356,-2.5385,-2.5373,-2.5481,-2.5449,-2.5453,-2.5457,-2.5493,-2.5503,-2.5512,-2.5394,-2.5393,-2.5393,0,0,-2.5044,-2.5066,-2.5112,-2.5136,-2.5171,-2.5183,-2.5194,-2.5228,-2.5239,-2.5296,-2.5291,-2.5328,-2.5396,-2.5421,-2.5443,-2.5518,-2.5513,-2.5531,-2.5566,-2.5603,-2.5611,-2.5618,-2.5646,-2.5655,-2.5537,-2.5537,-2.5537,0,-2.5069,-2.5129,-2.5137,-2.5181,-2.5205,-2.52,-2.5247,-2.527,-2.5316,-2.5333,-2.5318,-2.5404,-2.5427,-2.5496,-2.5515,-2.5533,-2.5547,-2.5526,-2.5609,-2.5617,-2.5624,-2.565,-2.566,-2.5539,-2.5539,-2.5539,-2.5539,0,-2.5159,-2.52,-2.5234,-2.5278,-2.5306,-2.5351,-2.5367,-2.5394,-2.5396,-2.541,-2.5469,-2.5497,-2.5541,-2.5558,-2.556,-2.5628,-2.5619,-2.5607,-2.558,-2.5636,-2.566,-2.5671,-2.5542,-2.5541,-2.5541,-2.554,0,0,-2.5234,-2.5283,-2.5295,-2.5316,-2.5355,-2.5388,-2.5434,-2.5477,-2.55,-2.5533,-2.5572,-2.5631,-2.562,-2.5645,-2.5651,-2.5683,-2.5742,-2.5667,-2.5668,-2.568,-2.5819,-2.5828,-2.5839,-2.5739,-2.5741,-2.5743,-2.5816,0,-2.5302,-2.5382,-2.5391,-2.5464,-2.5503,-2.55,-2.554,-2.5569,-2.5584,-2.5621,-2.5638,-2.5679,-2.5662,-2.5677,-2.5709,-2.5728,-2.577,-2.5723,-2.5776,-2.5778,-2.5767,-2.5852,-2.5861,-2.5929,-2.5826,-2.5828,-2.5829,0,-2.539,-2.5425,-2.5501,-2.5536,-2.5553,-2.5589,-2.5629,-2.5664,-2.5698,-2.5707,-2.5735,-2.5737,-2.5786,-2.5759,-2.5827,-2.5795,-2.5818,-2.5831,-2.5834,-2.5838,-2.5806,-2.5859,-2.5951,-2.5961,-2.5844,-2.5843,-2.5842,0,-2.5438,-2.5504,-2.5558,-2.5576,-2.5618,-2.5643,-2.5662,-2.5694,-2.572,-2.5756,-2.5773,-2.5815,-2.5837,-2.587,-2.5884,-2.5862,-2.5952,-2.5925,-2.5961,-2.5961,-2.5979,-2.5978,-2.6076,-2.5995,-2.5995,-2.5995,-2.5994,0,-2.5511,-2.5558,-2.558,-2.5613,-2.5666,-2.5677,-2.5729,-2.5747,-2.5776,-2.5814,-2.5815,-2.585,-2.5866,-2.5905,-2.5916,-2.5972,-2.5982,-2.5991,-2.5993,-2.5991,-2.5989,-2.6005,-2.6001,-2.5997,-2.5997,-2.5996,-2.5996,0,-2.5572,-2.5589,-2.5648,-2.5683,-2.5694,-2.5731,-2.5762,-2.5795,-2.581,-2.5858,-2.587,-2.5894,-2.594,-2.5957,-2.6013,-2.6021,-2.6085,-2.6083,-2.6073,-2.6073,-2.6109,-2.6105,-2.622,-2.6236,-2.6145,-2.6145,-2.6146,0,-2.5618,-2.5654,-2.5693,-2.5718,-2.5738,-2.5778,-2.5805,-2.5818,-2.5845,-2.5888,-2.5916,-2.5961,-2.5998,-2.6071,-2.6095,-2.6138,-2.6137,-2.6175,-2.6144,-2.614,-2.6138,-2.6135,-2.6139,-2.618,-2.6181,-2.6182,-2.6182,0,-2.5697,-2.5704,-2.5741,-2.5782,-2.5813,-2.5846,-2.5879,-2.5899,-2.5918,-2.5949,-2.5995,-2.6024,-2.6081,-2.6127,-2.6171,-2.6192,-2.6191,-2.6192,-2.6203,-2.62,-2.6192,-2.6197,-2.6088,-2.6189,-2.6188,-2.6188,-2.6187,-2.6187,-2.5751,-2.5783,-2.5817,-2.5859,-2.5884,-2.5915,-2.5948,-2.5968,-2.6006,-2.6053,-2.6059,-2.611,-2.6144,-2.6204,-2.6227,-2.6267,-2.6257,-2.6273,-2.6276,-2.628,-2.6282,-2.6187,-2.6275,-2.6275,-2.6275,-2.6275,-2.6275,0,-2.583,-2.5852,-2.5891,-2.5935,-2.5969,-2.5965,-2.6001,-2.603,-2.6073,-2.6106,-2.6142,-2.6196,-2.6241,-2.6268,-2.6314,-2.6341,-2.6341,-2.6352,-2.635,-2.6355,-2.6289,-2.6275,-2.6351,-2.6351,-2.6351,-2.6351,-2.6351,-2.6351,-2.5875,-2.5929,-2.594,-2.6008,-2.603,-2.6078,-2.6099,-2.6128,-2.6154,-2.6214,-2.6251,-2.6268,-2.6299,-2.6347,-2.6388,-2.6395,-2.6412,-2.6424,-2.643,-2.6367,-2.6359,-2.6352,-2.6339,-2.6427,-2.6427,-2.6493,-2.6493,-2.6494]},{"header":{"parameterUnit":"m.s-1","parameterCategory":1,"la1":30.2991,"la2":30.254,"lo1":-89.0895,"lo2":-89.0444,"dy":0.0017,"dx":0.0017,"nx":28,"ny":28,"refTime":"2024-05-05T21:00:00:Z","depth":0,"parameterNumber":3,"parameterNumberName":"V-component_of_WINDS"},"data":[0,0,0,0,0,0,0,0,0,0,0,0,0,0,0,0,0,0,0,0,0,0,0,0,0,0,0,0,0,0,0,0,0,0,0,0,0,0,0,0,0,0,0,0,0,0,0,0,0,0,0,0,0,0,0,0,0,0,3.1182,3.1182,0,3.1191,3.1192,3.1192,3.1229,3.1229,3.123,3.1231,3.1237,3.1236,3.1235,0,0,0,0,0,0,0,0,0,0,0,0,0,3.1191,3.1191,3.1181,3.1182,3.1182,3.1191,3.1192,3.1192,3.1228,3.1229,3.123,3.1231,3.1237,3.1236,3.1235,0,0,0,0,0,0,0,0,0,0,0,0,0,3.1193,3.1191,3.1181,3.1201,3.1203,3.1191,3.1192,3.1192,3.1228,3.1229,3.1231,3.1232,3.1237,3.1236,3.1235,3.1204,0,0,3.1232,3.1232,0,0,0,0,0,0,0,0,3.1193,3.1192,3.1198,3.12,3.1202,3.121,3.1197,3.1196,3.1228,3.1219,3.1231,3.1233,3.1226,3.1226,3.1225,3.1204,3.1204,3.1232,3.1232,3.1231,3.1231,0,0,0,0,0,0,0,3.1192,3.1192,3.1185,3.1198,3.1201,3.1209,3.121,3.1197,3.1215,3.1219,3.1222,3.1223,3.1228,3.1226,3.1226,3.1204,3.1232,3.1231,3.1231,3.123,3.1158,3.1157,0,0,0,0,0,0,3.119,3.1192,3.1185,3.1186,3.1201,3.1208,3.1209,3.1206,3.1215,3.1218,3.1222,3.1225,3.1227,3.1227,3.1226,3.119,3.1231,3.123,3.123,3.116,3.1158,3.1157,0,0,0,0,0,0,3.119,3.1189,3.1185,3.1189,3.119,3.1206,3.1202,3.1206,3.1204,3.1217,3.122,3.1217,3.1228,3.1227,3.121,3.1191,3.123,3.1229,3.1161,3.1159,3.1157,3.1118,0,0,0,0,0,0,3.119,3.1189,3.1178,3.1189,3.1189,3.1168,3.1201,3.1205,3.1203,3.1207,3.1214,3.1216,3.1229,3.1211,3.1209,3.119,3.1228,3.1163,3.116,3.1158,3.1121,3.1115,3.1109,0,0,0,0,0,3.119,3.1165,3.1177,3.1176,3.1176,3.1167,3.1167,3.1184,3.1201,3.119,3.1199,3.1216,3.1194,3.1209,3.1206,3.1187,3.1164,3.1161,3.1158,3.1123,3.1116,3.111,0,0,0,0,0,0,3.1148,3.1166,3.118,3.1157,3.1161,3.1174,3.1159,3.1176,3.1173,3.1176,3.1196,3.1197,3.1177,3.118,3.1197,3.1158,3.1182,3.1178,3.1156,3.1149,3.1144,3.1142,3.1227,0,0,0,0,0,3.1137,3.113,3.1146,3.1124,3.1126,3.1142,3.1139,3.1152,3.1156,3.1157,3.1164,3.1166,3.116,3.1155,3.115,3.1122,3.1124,3.1108,3.1103,3.1098,3.1094,3.108,3.1073,3.1147,3.1147,3.1147,0,0,3.1112,3.1121,3.1115,3.1116,3.112,3.1112,3.1143,3.1132,3.1126,3.1155,3.1139,3.1144,3.1148,3.1125,3.1116,3.1128,3.1075,3.1094,3.109,3.1089,3.1077,3.107,3.1063,3.1145,3.1145,3.1146,0,0,3.1063,3.1069,3.1053,3.1057,3.1064,3.1075,3.1071,3.1082,3.1088,3.1072,3.1094,3.1087,3.1075,3.1077,3.1076,3.103,3.1046,3.1028,3.0998,3.0984,3.0978,3.0973,3.0957,3.095,3.1025,3.1024,3.1024,0,3.1031,3.102,3.1041,3.103,3.103,3.1058,3.1041,3.1044,3.1047,3.1046,3.106,3.1048,3.1052,3.103,3.102,3.1018,3.1014,3.1026,3.0978,3.0973,3.0968,3.0953,3.0946,3.1022,3.1022,3.1023,3.1023,0,3.098,3.0973,3.0958,3.0964,3.0962,3.0947,3.0966,3.0961,3.0975,3.0985,3.097,3.0976,3.0973,3.097,3.0982,3.095,3.0958,3.0974,3.0999,3.0959,3.0944,3.0939,3.1019,3.102,3.102,3.1021,0,0,3.0902,3.0922,3.0916,3.0919,3.093,3.0924,3.0911,3.091,3.0906,3.0908,3.0898,3.0889,3.0905,3.0904,3.0918,3.0906,3.0869,3.0924,3.0925,3.0913,3.0834,3.0821,3.0814,3.0881,3.088,3.0879,3.0834,0,3.0855,3.0836,3.0856,3.0831,3.0825,3.0853,3.0842,3.0846,3.0856,3.0851,3.0861,3.0854,3.0877,3.0877,3.0866,3.0876,3.0853,3.0879,3.087,3.0869,3.0867,3.0806,3.0792,3.0749,3.0829,3.0828,3.0827,0,3.0797,3.0799,3.0775,3.0789,3.0786,3.0776,3.0778,3.0773,3.0779,3.0787,3.0788,3.0805,3.0793,3.0818,3.0801,3.0818,3.0816,3.082,3.0819,3.0817,3.0845,3.0802,3.0736,3.0729,3.0818,3.0819,3.082,0,3.0742,3.0739,3.0724,3.0726,3.0742,3.0734,3.074,3.0748,3.0747,3.0748,3.0747,3.0746,3.0745,3.0744,3.076,3.0777,3.0741,3.0767,3.0746,3.0746,3.0736,3.0736,3.0667,3.0736,3.0736,3.0736,3.0737,0,3.0687,3.0671,3.07,3.0691,3.0674,3.0697,3.0679,3.0688,3.0695,3.0688,3.0712,3.0704,3.0727,3.0721,3.0734,3.0718,3.0717,3.0723,3.0726,3.072,3.0719,3.0718,3.0721,3.0735,3.0735,3.0736,3.0736,0,3.0622,3.0641,3.0627,3.0644,3.0648,3.0635,3.0649,3.0641,3.0653,3.0643,3.0642,3.0661,3.0656,3.0673,3.067,3.0679,3.0656,3.0664,3.0654,3.0656,3.0634,3.0636,3.0561,3.0552,3.0627,3.0626,3.0626,0,3.0585,3.0574,3.059,3.0588,3.0593,3.0589,3.0588,3.0611,3.0609,3.0617,3.0608,3.0605,3.0604,3.0595,3.0607,3.0606,3.0614,3.0588,3.0613,3.0608,3.0613,3.0613,3.0612,3.0582,3.0581,3.058,3.058,0,3.0517,3.0528,3.0527,3.053,3.0529,3.0531,3.0536,3.0532,3.0557,3.0553,3.055,3.0549,3.0548,3.0545,3.0546,3.0551,3.0569,3.0572,3.0567,3.056,3.0554,3.0557,3.0638,3.0573,3.0574,3.0574,3.0574,3.0575,3.0465,3.0457,3.0467,3.0466,3.0472,3.0476,3.047,3.0482,3.048,3.0481,3.0495,3.0489,3.0496,3.05,3.0504,3.0499,3.0511,3.0504,3.0502,3.0499,3.0495,3.0556,3.0499,3.05,3.05,3.05,3.05,0,3.0398,3.0407,3.0405,3.0412,3.0411,3.043,3.0436,3.0434,3.0428,3.0435,3.0434,3.043,3.0428,3.0442,3.0441,3.0434,3.0443,3.0433,3.0433,3.0434,3.0485,3.0489,3.0427,3.0427,3.0427,3.0427,3.0427,3.0427,3.0363,3.035,3.0362,3.0353,3.0362,3.0357,3.0359,3.0362,3.0368,3.0363,3.0362,3.0372,3.0381,3.0382,3.038,3.0384,3.0383,3.037,3.0377,3.0423,3.0431,3.0437,3.0441,3.037,3.037,3.0327,3.0326,3.0326]}]]